Orbital Elements at Epoch 2459200.5 (2020-Dec-17.0) TDB
Reference: JPL 25 (heliocentric ecliptic J2000)
Element | Value | Uncertainty (1-sigma) | Units |
e | .09279664649400489 | 5.6299e-08 | |
a | 2.792444118272354 | 2.0215e-08 | au |
q | 2.533314668574771 | 1.5311e-07 | au |
i | 13.71855697114348 | 5.3694e-06 | deg |
node | 301.0755011869594 | 2.8783e-05 | deg |
peri | 197.6533198804099 | 4.5408e-05 | deg |
M | 112.6124146184549 | 3.5073e-05 | deg |
tp | 2458667.338313483267 (2019-Jul-02.83831348) | 0.00016464 | TDB |
period | 1704.414276137624 4.67 | 1.8508e-05 5.067e-08 | d yr |
n | .2112162547803793 | 2.2935e-09 | deg/d |
Q | 3.051573567969937 | 2.2091e-08 | au |
|
| | Orbit Determination Parameters
Additional Information
|